| time (UTC) | temp F | wind direction | speed MPH | gust MPH | rain 1hr in | rain 24hr in | rain mn in | humidity % | barometer mb |
| 20260505180749 | 83 | 183 | 10.0 | 17.0 | 0.00 | 0.00 | 0.00 | 64 | 1003.1 |
| 20260505175745 | 83 | 213 | 9.0 | 15.0 | 0.00 | 0.00 | 0.00 | 65 | 1003.1 |
| 20260505174746 | 82 | 195 | 10.0 | 17.0 | 0.00 | 0.00 | 0.00 | 65 | 1003.2 |
| 20260505174228 | 82 | 200 | 11.0 | 20.0 | 0.00 | 0.00 | 0.00 | 64 | 1003.0 |
| 20260505172747 | 82 | 178 | 11.0 | 19.0 | 0.00 | 0.00 | 0.00 | 65 | 1003.0 |
| 20260505171747 | 82 | 200 | 11.0 | 20.0 | 0.00 | 0.00 | 0.00 | 65 | 1003.0 |
| 20260505170745 | 82 | 209 | 10.0 | 17.0 | 0.00 | 0.00 | 0.00 | 66 | 1003.2 |
| 20260505165747 | 81 | 238 | 12.0 | 19.0 | 0.00 | 0.00 | 0.00 | 66 | 1003.1 |
| 20260505164743 | 81 | 225 | 12.0 | 22.0 | 0.00 | 0.00 | 0.00 | 67 | 1003.2 |
| 20260505163743 | 80 | 192 | 12.0 | 21.0 | 0.00 | 0.00 | 0.00 | 68 | 1003.1 |
| 20260505162743 | 79 | 221 | 10.0 | 16.0 | 0.00 | 0.00 | 0.00 | 71 | 1003.0 |
| 20260505162233 | 78 | 196 | 11.0 | 17.0 | 0.00 | 0.00 | 0.00 | 72 | 1003.0 |
| 20260505160745 | 79 | 179 | 11.0 | 18.0 | 0.00 | 0.00 | 0.00 | 71 | 1002.9 |
| 20260505153222 | 76 | 193 | 12.0 | 20.0 | 0.00 | 0.00 | 0.00 | 77 | 1002.7 |
| 20260505152228 | 75 | 218 | 10.0 | 19.0 | 0.00 | 0.00 | 0.00 | 78 | 1002.7 |
| 20260505151709 | 75 | 185 | 13.0 | 21.0 | 0.00 | 0.00 | 0.00 | 77 | 1002.7 |
| 20260505140208 | 73 | 195 | 13.0 | 19.0 | 0.00 | 0.00 | 0.00 | 81 | 1002.8 |
| 20260505124726 | 70 | 199 | 10.0 | 18.0 | 0.00 | 0.00 | 0.00 | 85 | 1002.2 |
| 20260505123723 | 70 | 199 | 10.0 | 17.0 | 0.00 | 0.00 | 0.00 | 85 | 1002.0 |
| 20260505122721 | 70 | 223 | 10.0 | 18.0 | 0.00 | 0.00 | 0.00 | 85 | 1001.8 |
| 20260505121723 | 70 | 195 | 11.0 | 17.0 | 0.00 | 0.00 | 0.00 | 85 | 1001.7 |
| 20260505120721 | 70 | 174 | 10.0 | 17.0 | 0.00 | 0.00 | 0.00 | 85 | 1001.6 |
| 20260505115721 | 69 | 174 | 9.0 | 16.0 | 0.00 | 0.00 | 0.00 | 85 | 1001.6 |
| 20260505114722 | 69 | 164 | 10.0 | 21.0 | 0.00 | 0.00 | 0.00 | 85 | 1001.5 |
| 20260505113722 | 69 | 207 | 10.0 | 21.0 | 0.00 | 0.00 | 0.00 | 85 | 1001.5 |
| 20260505112721 | 69 | 164 | 8.0 | 16.0 | 0.00 | 0.00 | 0.00 | 86 | 1001.5 |
| 20260505111725 | 69 | 181 | 8.0 | 16.0 | 0.00 | 0.00 | 0.00 | 85 | 1001.4 |
| 20260505110721 | 69 | 186 | 8.0 | 17.0 | 0.00 | 0.00 | 0.00 | 85 | 1001.4 |
| 20260505110218 | 69 | 177 | 8.0 | 17.0 | 0.00 | 0.00 | 0.00 | 85 | 1001.4 |
| 20260505101723 | 69 | 178 | 6.0 | 13.0 | 0.00 | 0.00 | 0.00 | 85 | 1001.4 |
| 20260505100721 | 69 | 201 | 7.0 | 14.0 | 0.00 | 0.00 | 0.00 | 85 | 1001.4 |
| 20260505095720 | 69 | 184 | 6.0 | 15.0 | 0.00 | 0.00 | 0.00 | 84 | 1001.5 |
| 20260505094720 | 70 | 196 | 7.0 | 15.0 | 0.00 | 0.00 | 0.00 | 84 | 1001.6 |
| 20260505093720 | 70 | 190 | 7.0 | 14.0 | 0.00 | 0.00 | 0.00 | 84 | 1001.5 |
| 20260505092719 | 70 | 154 | 7.0 | 14.0 | 0.00 | 0.00 | 0.00 | 83 | 1001.5 |
| 20260505092201 | 70 | 190 | 6.0 | 15.0 | 0.00 | 0.00 | 0.00 | 83 | 1001.8 |
| 20260505090720 | 70 | 155 | 7.0 | 12.0 | 0.00 | 0.00 | 0.00 | 82 | 1001.9 |
| 20260505085718 | 70 | 169 | 6.0 | 14.0 | 0.00 | 0.00 | 0.00 | 82 | 1002.0 |
| 20260505084717 | 71 | 161 | 8.0 | 16.0 | 0.00 | 0.00 | 0.00 | 81 | 1002.0 |
| 20260505083720 | 71 | 159 | 9.0 | 18.0 | 0.00 | 0.00 | 0.00 | 81 | 1002.1 |
| 20260505082715 | 71 | 175 | 9.0 | 19.0 | 0.00 | 0.00 | 0.00 | 80 | 1002.2 |
| 20260505081716 | 71 | 173 | 10.0 | 19.0 | 0.00 | 0.00 | 0.00 | 79 | 1002.1 |
| 20260505080714 | 71 | 201 | 10.0 | 19.0 | 0.00 | 0.00 | 0.00 | 79 | 1001.9 |
| 20260505075711 | 71 | 159 | 12.0 | 21.0 | 0.00 | 0.00 | 0.00 | 78 | 1002.0 |
| 20260505074712 | 71 | 184 | 11.0 | 24.0 | 0.00 | 0.00 | 0.00 | 78 | 1001.9 |
| 20260505073711 | 72 | 148 | 11.0 | 21.0 | 0.00 | 0.00 | 0.00 | 77 | 1002.1 |
| 20260505072713 | 72 | 131 | 11.0 | 22.0 | 0.00 | 0.00 | 0.00 | 77 | 1002.4 |
| 20260505072148 | 72 | 186 | 10.0 | 21.0 | 0.00 | 0.00 | 0.00 | 76 | 1002.7 |
| 20260505070712 | 72 | 196 | 9.0 | 20.0 | 0.00 | 0.00 | 0.00 | 76 | 1002.9 |
| 20260505065712 | 72 | 151 | 9.0 | 17.0 | 0.00 | 0.00 | 0.00 | 75 | 1003.0 |
| 20260505064709 | 72 | 174 | 8.0 | 17.0 | 0.00 | 0.00 | 0.00 | 75 | 1003.1 |
| 20260505063707 | 72 | 167 | 9.0 | 18.0 | 0.00 | 0.00 | 0.00 | 75 | 1003.3 |
| 20260505062708 | 73 | 170 | 9.0 | 17.0 | 0.00 | 0.00 | 0.00 | 74 | 1003.3 |
| 20260505061707 | 73 | 162 | 10.0 | 20.0 | 0.00 | 0.00 | 0.00 | 74 | 1003.4 |
| 20260505060707 | 73 | 149 | 10.0 | 20.0 | 0.00 | 0.00 | 0.00 | 73 | 1003.4 |
| 20260505055708 | 73 | 197 | 10.0 | 21.0 | 0.00 | 0.00 | 0.00 | 73 | 1003.4 |
| 20260505054709 | 73 | 180 | 11.0 | 23.0 | 0.00 | 0.00 | 0.00 | 73 | 1003.4 |
| 20260505054623 | 74 | 180 | 12.0 | 23.0 | 0.00 | 0.00 | 0.00 | 72 | 1003.3 |
| 20260505052701 | 74 | 201 | 11.0 | 23.0 | 0.00 | 0.00 | 0.00 | 72 | 1003.1 |
| 20260505051702 | 74 | 148 | 11.0 | 22.0 | 0.00 | 0.00 | 0.00 | 71 | 1003.2 |
| 20260505051150 | 74 | 167 | 10.0 | 26.0 | 0.00 | 0.00 | 0.00 | 71 | 1003.2 |
| 20260505041656 | 75 | 159 | 10.0 | 21.0 | 0.00 | 0.00 | 0.00 | 70 | 1003.6 |
| 20260505040657 | 75 | 148 | 9.0 | 25.0 | 0.00 | 0.00 | 0.00 | 70 | 1003.6 |
| 20260505035657 | 75 | 163 | 8.0 | 18.0 | 0.00 | 0.00 | 0.00 | 69 | 1003.6 |
| 20260505034655 | 75 | 187 | 9.0 | 18.0 | 0.00 | 0.00 | 0.00 | 69 | 1003.5 |
| 20260505034150 | 76 | 105 | 9.0 | 20.0 | 0.00 | 0.00 | 0.00 | 68 | 1003.5 |
| 20260505032655 | 76 | 134 | 8.0 | 20.0 | 0.00 | 0.00 | 0.00 | 68 | 1003.3 |
| 20260505031653 | 76 | 163 | 8.0 | 24.0 | 0.00 | 0.00 | 0.00 | 68 | 1003.4 |
| 20260505030653 | 76 | 166 | 8.0 | 18.0 | 0.00 | 0.00 | 0.00 | 68 | 1003.4 |
| 20260505030619 | 76 | 208 | 7.0 | 19.0 | 0.00 | 0.00 | 0.00 | 68 | 1003.4 |
| 20260505024653 | 76 | 102 | 7.0 | 18.0 | 0.00 | 0.00 | 0.00 | 68 | 1003.6 |
| 20260505023653 | 76 | 157 | 5.0 | 14.0 | 0.00 | 0.00 | 0.00 | 68 | 1003.6 |
| 20260505022653 | 76 | 176 | 5.0 | 14.0 | 0.00 | 0.00 | 0.00 | 68 | 1003.5 |
| 20260505021653 | 76 | 159 | 4.0 | 11.0 | 0.00 | 0.00 | 0.00 | 67 | 1003.5 |
| 20260505020653 | 76 | 152 | 4.0 | 13.0 | 0.00 | 0.00 | 0.00 | 67 | 1003.3 |
| 20260505015653 | 76 | 152 | 5.0 | 14.0 | 0.00 | 0.00 | 0.00 | 67 | 1003.3 |
| 20260505014655 | 76 | 148 | 6.0 | 15.0 | 0.00 | 0.00 | 0.00 | 66 | 1003.4 |
| 20260505013653 | 76 | 153 | 6.0 | 16.0 | 0.00 | 0.00 | 0.00 | 66 | 1003.3 |
| 20260505013134 | 76 | 139 | 5.0 | 10.0 | 0.00 | 0.00 | 0.00 | 65 | 1003.4 |
| 20260505011653 | 77 | 176 | 6.0 | 17.0 | 0.00 | 0.00 | 0.00 | 65 | 1003.3 |
| 20260505010655 | 77 | 108 | 8.0 | 22.0 | 0.00 | 0.00 | 0.00 | 64 | 1003.3 |
| 20260505005653 | 77 | 155 | 7.0 | 16.0 | 0.00 | 0.00 | 0.00 | 64 | 1003.4 |
| 20260505005136 | 77 | 188 | 9.0 | 20.0 | 0.00 | 0.00 | 0.00 | 63 | 1003.4 |
| 20260505004145 | 78 | 146 | 8.0 | 24.0 | 0.00 | 0.00 | 0.00 | 63 | 1003.5 |
| 20260505002646 | 78 | 190 | 8.0 | 21.0 | 0.00 | 0.00 | 0.00 | 62 | 1003.5 |
| 20260505002602 | 78 | 176 | 10.0 | 22.0 | 0.00 | 0.00 | 0.00 | 61 | 1003.5 |
| 20260505000646 | 79 | 153 | 8.0 | 17.0 | 0.00 | 0.00 | 0.00 | 61 | 1003.6 |
| 20260504235647 | 79 | 123 | 10.0 | 21.0 | 0.00 | 0.00 | 0.00 | 60 | 1003.7 |
| 20260504234644 | 79 | 181 | 8.0 | 19.0 | 0.00 | 0.00 | 0.00 | 60 | 1003.7 |
| 20260504233643 | 79 | 169 | 8.0 | 21.0 | 0.00 | 0.00 | 0.00 | 60 | 1003.9 |
| 20260504232641 | 79 | 162 | 10.0 | 24.0 | 0.00 | 0.00 | 0.00 | 60 | 1003.8 |
| 20260504231641 | 79 | 184 | 11.0 | 22.0 | 0.00 | 0.00 | 0.00 | 59 | 1003.9 |
| 20260504231130 | 80 | 157 | 10.0 | 20.0 | 0.00 | 0.00 | 0.00 | 59 | 1004.0 |
| 20260504225637 | 80 | 160 | 8.0 | 22.0 | 0.00 | 0.00 | 0.00 | 58 | 1004.0 |
| 20260504224640 | 80 | 198 | 11.0 | 22.0 | 0.00 | 0.00 | 0.00 | 59 | 1004.3 |
| 20260504223641 | 81 | 202 | 10.0 | 21.0 | 0.00 | 0.00 | 0.00 | 58 | 1004.4 |
| 20260504222636 | 81 | 143 | 11.0 | 21.0 | 0.00 | 0.00 | 0.00 | 57 | 1004.3 |
| 20260504221635 | 81 | 178 | 9.0 | 22.0 | 0.00 | 0.00 | 0.00 | 57 | 1004.2 |
| 20260504221125 | 81 | 187 | 10.0 | 20.0 | 0.00 | 0.00 | 0.00 | 57 | 1004.3 |
| 20260504215636 | 81 | 202 | 12.0 | 30.0 | 0.00 | 0.00 | 0.00 | 57 | 1004.4 |
| 20260504214635 | 82 | 188 | 11.0 | 21.0 | 0.00 | 0.00 | 0.00 | 59 | 1004.5 |
| 20260504213636 | 81 | 173 | 11.0 | 28.0 | 0.00 | 0.00 | 0.00 | 57 | 1004.6 |
| 20260504212652 | 81 | 142 | 10.0 | 23.0 | 0.00 | 0.00 | 0.00 | 57 | 1004.7 |
| 20260504212117 | 82 | 119 | 11.0 | 25.0 | 0.00 | 0.00 | 0.00 | 57 | 1005.1 |
| 20260504210635 | 82 | 150 | 12.0 | 27.0 | 0.00 | 0.00 | 0.00 | 56 | 1005.1 |
| 20260504205636 | 82 | 123 | 12.0 | 24.0 | 0.00 | 0.00 | 0.00 | 56 | 1005.2 |
| 20260504204635 | 82 | 172 | 12.0 | 23.0 | 0.00 | 0.00 | 0.00 | 57 | 1005.4 |
| 20260504203631 | 82 | 185 | 9.0 | 20.0 | 0.00 | 0.00 | 0.00 | 56 | 1005.6 |
| 20260504202633 | 81 | 194 | 12.0 | 23.0 | 0.00 | 0.00 | 0.00 | 56 | 1005.8 |
| 20260504201631 | 81 | 187 | 10.0 | 24.0 | 0.00 | 0.00 | 0.00 | 58 | 1006.0 |
| 20260504200632 | 80 | 194 | 11.0 | 27.0 | 0.00 | 0.00 | 0.00 | 58 | 1006.3 |
| 20260504195630 | 80 | 193 | 11.0 | 22.0 | 0.00 | 0.00 | 0.00 | 58 | 1006.5 |
| 20260504195115 | 80 | 188 | 11.0 | 21.0 | 0.00 | 0.00 | 0.00 | 59 | 1006.9 |
| 20260504193629 | 80 | 159 | 11.0 | 24.0 | 0.00 | 0.00 | 0.00 | 58 | 1007.2 |
| 20260504192630 | 80 | 155 | 10.0 | 20.0 | 0.00 | 0.00 | 0.00 | 58 | 1007.2 |
| 20260504191624 | 79 | 207 | 10.0 | 24.0 | 0.00 | 0.00 | 0.00 | 58 | 1007.2 |
| 20260504190623 | 79 | 163 | 11.0 | 27.0 | 0.00 | 0.00 | 0.00 | 59 | 1007.5 |
| 20260504185623 | 78 | 184 | 13.0 | 27.0 | 0.00 | 0.00 | 0.00 | 59 | 1007.6 |
| 20260504184623 | 78 | 182 | 12.0 | 23.0 | 0.00 | 0.00 | 0.00 | 59 | 1007.8 |
| 20260504183621 | 78 | 167 | 13.0 | 23.0 | 0.00 | 0.00 | 0.00 | 59 | 1007.8 |
| 20260504182620 | 77 | 200 | 13.0 | 24.0 | 0.00 | 0.00 | 0.00 | 58 | 1008.0 |